Satellite: RS-38 Catalog number: 35869 Epoch time: 11258.21535773 Element set: 703 Inclination: 098.6938 deg RA of node: 312.1646 deg Eccentricity: 0.0005120 Arg of perigee: 123.8176 deg Mean anomaly: 236.3469 deg Mean motion: 14.22021278 rev/day Decay rate: 1.77e-06 rev/day^2 Epoch rev: 10339 Checksum: 307
Satellite: ARISSAT1 Catalog number: 37772 Epoch time: 11258.88591337 Element set: 131 Inclination: 051.6381 deg RA of node: 063.8610 deg Eccentricity: 0.0011345 Arg of perigee: 207.8100 deg Mean anomaly: 308.1738 deg Mean motion: 15.63264202 rev/day Decay rate: 5.4723e-04 rev/day^2 Epoch rev: 665 Checksum: 279
/EX
participants (1)
-
Ray Hoad